Location: Albany
(35.0170°S, 117.8920°E)
Time: 16:09:12
(UTC+08:00)

Transit 2A - Pass Details

Date: 26 January 2021
Orbit: 601 x 958 km, 66.7° (Epoch: 02 March)

Event Time Altitude Azimuth Distance (km) Brightness Sun altitude
Rises 02:13:28 0° 225° (SW) 3,602 9.6 -29.9°
Reaches altitude 10° 02:16:44 10° 242° (WSW) 2,682 8.7 -29.6°
Enters shadow 02:16:58 11° 243° (WSW) 2,628 8.7 -29.6°
Maximum altitude 02:20:58 19° 284° (WNW) 2,111 - -29.1°
Drops below altitude 10° 02:25:14 10° 327° (NNW) 2,684 - -28.7°
Sets 02:28:31 0° 343° (NNW) 3,604 - -28.3°
